Showing default

YAOGAN-30 W, 46809

Orbit data source: Space-Track

YAOGAN-30 W, 46809 is a payload satellite owned by PLA SSF (CN) in LEO that was launched on Mon, 26 Oct 2020 UTC via a CHANG ZHENG 2C launch vehicle from the Xichang Space Center, China (XSC). Payloads include a variety of satellites, spacecraft, and rockets equipped with specific instruments for various scientific and technological missions. These include communications satellites like Starlink; space stations such as the ISS; scientific satellites like the Hubble; Earth observation satellites from companies like Planet Labs, Umbra, and HawkEye 360; GPS; miniature CubeSats for education and research; and military/defense satellites.

Loading next visibility...
YAOGAN-30 W details
Identifier
46809, 2020-076C
Orbit
LEO
Last TLE update19 hours ago
Origin
Flag of CNPLA SSF (CN / PRC)
ManufacturerSECM
MissionOperational Defense Sigint
Bus & MotorUnknown
Mass~500 kg wet, ~500 kg dry
Launch date (UTC)
2020-10-26 (4 years ago)
Launch vehicle
CHANG ZHENG 2C
Launch site
Xichang Space Center, China (XSC)
Object type
Payload
Rocket body
Debris
Shape & HBRBox + 2 Pan, Unknown HBR
Radar Cross Section0.446 m², Large (>1 m²)

Expand to show TLE details & history

TLE from 19 hours ago
0 YAOGAN-30 W
1 46809U 20076C   24360.65912612  .00007918  00000-0  65728-3 0  9995
2 46809  34.9950 123.0250 0006629  47.1010 313.0253 14.98097348227289
Epoch: 2024-12-25T15:49Z
Definitive object data (Epoch: 2024-12-25T15:49:08.496Z)
Latitude
Longitude151.0899°
Altitude568.552 km
Speed7.581 km/s
True Right ascension08h 12m 06s
True Declination0° 00' 00"
Sunlit
Object was in full shadow at TLE epoch
Visualization TLE readout
Latitude8.69819°
Longitude158.78603°
Altitude567.355 km
Speed7.582 km/s
Apparent Right ascension05h 59m 01s
Apparent Declination-42° 56' 45"
Sunlit
Object is in full shadow
Visualization observer readout
Local Sidereal Time10:26:04
Azimuth223.538° SW
Elevation-12.455°
Doppler factor1
Orbital elements
Apogee altitude580.601 km
Perigee altitude571.381 km
Semi-major axis6,954.128 km
Eccentricity0.0006629
Inclination34.995°
RAAN123.025°
Arg. of periapsis47.101°
True anomaly312.96974°
Mean anomaly313.0253°
Eccentric anomaly312.99752°
Mean motion3.74265 °/min
BSTAR0.00065728
Orbital period96.19 mins
Loading maneuver chart data...
Loading historical data...
Loading historical data...
Loading historical data...
Loading historical data...
Loading historical data...
Loading historical data...
Loading historical data...
Other satellites on launch #76 in the year 2020 (2020-10-26 UTC)

YAOGAN-30 W Visibility forecast

Observer location: undefined°, undefined

Span
Click to sort rows by Start time (UTC) header in descending order
Start Az.
Max El. time (UTC)
Max El. Az.
Max El.
End time (UTC)
End Az.
5 mins2024-12-26 12:53:47.549Z213.857° SW2024-12-26 12:55:47.549Z170.292° S27.6°2024-12-26 12:58:47.549Z110.313° ESE
6 mins2024-12-26 14:34:47.549Z240.991° WSW2024-12-26 14:36:47.549Z195.219° SSW33.59°2024-12-26 14:40:47.549Z112.167° ESE
6 mins2024-12-26 16:15:47.549Z245.216° WSW2024-12-26 16:17:47.549Z209.324° SW24.477°2024-12-26 16:21:47.549Z138.938° SSE
|